Starlink 6116

operational
NORAD ID: 56911 Int'l Des: 2023-083 Owner: SPXS Country: US Constellation: starlink
LEOCIRCULAR

About Starlink 6116

Description loading...

Live Position

Loading 3D Globe...

Upcoming Passes

Altitude History

Altitude vs Time

uPlot chart will show altitude changes over time

Two-Line Element Set

1 56911U 23083AM 25260.56275725 .00001737 00000-0 14367-3 0 9994
2 56911 43.0039 289.8415 0001288 271.5493 88.5202 15.02526739125777
Epoch: Sep 17, 2025 • Age: 15 hours

Current Status

Altitude 562.0 km
Velocity 7.58 km/s
Sub-Earth Point -15.82°S, 55.12°E
Launch Date Jun 12, 2023
Age 2.2 years
Type internet

Technical Details

Classification Payload
Mass 305.00 kg
Dry Mass 290.00 kg
Total Mass 305.00 kg
Length 0.20 m
Diameter 2.80 m
Span 9.00 m
Shape Box + pan
Manufacturer SPXS
Bus Type Starlink
Phase Status In Orbit
Owner/State SPXS/US

Large Constellations

Loading constellations...